When you browse on this site, cookies collect data to enhance your experience and personalize the content and advertising you see.
Visit our Privacy Policy to learn more. By continuing to use the site, you agree to this use of cookies and data.
  • In Czech Republic
  • List of Countries
  • For 7 days
  • Water Temperature
  • Satellite Maps
  • Weather Map
  • Weather Widgets
  • user-avatar
    Login

    Hourly Weather Kitzbuhel

    Today, 24 June, Monday

    Time Temperature Precipitation Wind Pressure Humidity
    00:00 +14°C° 0 mm 1 mps 680 mmHg 95%
    01:00 +13°C° 0 mm 1 mps 680 mmHg 95%
    02:00 +13°C° 0 mm 1 mps 680 mmHg 94%
    03:00 +13°C° 0 mm 1 mps 680 mmHg 94%
    04:00 +13°C° 0 mm 1 mps 680 mmHg 93%
    05:00 +15°C° 0 mm 1 mps 681 mmHg 87%
    06:00 +16°C° 0 mm 0 mps 681 mmHg 81%
    07:00 +18°C° 0 mm 0 mps 682 mmHg 72%
    08:00 +22°C° 0 mm 1 mps 682 mmHg 65%
    09:00 +24°C° 0 mm 1 mps 682 mmHg 58%
    10:00 +26°C° 0 mm 1 mps 683 mmHg 50%
    11:00 +27°C° 0 mm 1 mps 683 mmHg 48%
    12:00 +28°C° 0 mm 1 mps 683 mmHg 46%
    13:00 +28°C° 0 mm 2 mps 683 mmHg 44%
    14:00 +28°C° 0 mm 2 mps 683 mmHg 45%
    15:00 +28°C° 0 mm 2 mps 683 mmHg 47%
    16:00 +28°C° 0 mm 2 mps 682 mmHg 49%
    17:00 +26°C° 0 mm 2 mps 682 mmHg 60%
    18:00 +25°C° 0 mm 1 mps 682 mmHg 71%
    19:00 +23°C° 0 mm 1 mps 682 mmHg 83%
    20:00 +22°C° 0 mm 1 mps 682 mmHg 85%
    21:00 +20°C° 0 mm 1 mps 682 mmHg 88%
    22:00 +19°C° 0 mm 1 mps 682 mmHg 90%
    23:00 +18°C° 0 mm 1 mps 682 mmHg 89%

    Tomorrow, 25 June, Tuesday

    Time Temperature Precipitation Wind Pressure Humidity
    00:00 +17°C° 0 mm 2 mps 682 mmHg 87%
    01:00 +16°C° 0 mm 2 mps 682 mmHg 86%
    02:00 +16°C° 0 mm 2 mps 682 mmHg 84%
    03:00 +16°C° 0 mm 2 mps 682 mmHg 82%
    04:00 +16°C° 0 mm 2 mps 681 mmHg 80%
    05:00 +19°C° 0 mm 1 mps 682 mmHg 75%
    06:00 +21°C° 0 mm 1 mps 682 mmHg 70%
    07:00 +23°C° 0 mm 1 mps 683 mmHg 64%
    08:00 +25°C° 0 mm 1 mps 684 mmHg 56%
    09:00 +28°C° 0 mm 1 mps 684 mmHg 47%
    10:00 +31°C° 0 mm 1 mps 685 mmHg 39%
    11:00 +31°C° 0 mm 1 mps 685 mmHg 35%
    12:00 +32°C° 0 mm 1 mps 685 mmHg 32%
    13:00 +34°C° 0 mm 2 mps 685 mmHg 29%
    14:00 +32°C° 0 mm 2 mps 685 mmHg 32%
    15:00 +32°C° 0 mm 2 mps 685 mmHg 34%
    16:00 +32°C° 0 mm 2 mps 685 mmHg 37%
    17:00 +30°C° 0 mm 1 mps 685 mmHg 50%
    18:00 +28°C° 0 mm 1 mps 685 mmHg 62%
    19:00 +26°C° 0 mm 1 mps 684 mmHg 75%
    20:00 +24°C° 0 mm 1 mps 684 mmHg 78%
    21:00 +22°C° 0 mm 1 mps 684 mmHg 80%
    22:00 +21°C° 0 mm 1 mps 684 mmHg 83%
    23:00 +20°C° 0 mm 1 mps 684 mmHg 79%

    Day after tomorrow, 26 June, Wednesday

    Time Temperature Precipitation Wind Pressure Humidity
    00:00 +20°C° 0 mm 1 mps 684 mmHg 76%
    01:00 +20°C° 0 mm 1 mps 684 mmHg 73%
    02:00 +19°C° 0 mm 1 mps 684 mmHg 69%
    03:00 +19°C° 0 mm 1 mps 684 mmHg 65%
    04:00 +19°C° 0 mm 1 mps 684 mmHg 62%
    05:00 +21°C° 0 mm 1 mps 684 mmHg 60%
    06:00 +23°C° 0 mm 1 mps 685 mmHg 58%
    07:00 +25°C° 0 mm 1 mps 686 mmHg 56%
    08:00 +27°C° 0 mm 1 mps 686 mmHg 49%
    09:00 +30°C° 0 mm 1 mps 686 mmHg 42%
    10:00 +32°C° 0 mm 1 mps 687 mmHg 35%
    11:00 +33°C° 0 mm 1 mps 687 mmHg 32%
    12:00 +33°C° 0 mm 1 mps 687 mmHg 29%
    13:00 +35°C° 0 mm 2 mps 687 mmHg 26%
    14:00 +34°C° 0 mm 2 mps 687 mmHg 29%
    15:00 +34°C° 0 mm 2 mps 686 mmHg 31%
    16:00 +32°C° 0 mm 2 mps 686 mmHg 34%
    17:00 +30°C° 0 mm 1 mps 686 mmHg 46%
    18:00 +28°C° 0 mm 1 mps 685 mmHg 58%
    19:00 +24°C° 0 mm 0 mps 685 mmHg 70%
    20:00 +25°C° 0 mm 1 mps 685 mmHg 71%
    21:00 +23°C° 0 mm 1 mps 685 mmHg 72%
    22:00 +21°C° 0 mm 1 mps 685 mmHg 74%
    23:00 +21°C° 0 mm 1 mps 684 mmHg 72%

    27 June, Thursday

    Time Temperature Precipitation Wind Pressure Humidity
    00:00 +21°C° 0 mm 1 mps 684 mmHg 69%
    01:00 +20°C° 0 mm 1 mps 684 mmHg 67%
    02:00 +20°C° 0 mm 1 mps 684 mmHg 66%
    03:00 +20°C° 0 mm 1 mps 684 mmHg 65%
    04:00 +19°C° 0 mm 1 mps 683 mmHg 63%
    05:00 +21°C° 0 mm 1 mps 684 mmHg 62%
    06:00 +23°C° 0 mm 1 mps 684 mmHg 60%
    07:00 +23°C° 0 mm 0 mps 684 mmHg 59%
    08:00 +27°C° 0 mm 1 mps 685 mmHg 53%
    09:00 +29°C° 0 mm 1 mps 685 mmHg 47%
    10:00 +31°C° 0 mm 1 mps 685 mmHg 41%
    11:00 +31°C° 0 mm 2 mps 685 mmHg 40%
    12:00 +32°C° 0 mm 2 mps 685 mmHg 40%
    13:00 +32°C° 0 mm 2 mps 685 mmHg 39%
    14:00 +32°C° 0 mm 2 mps 684 mmHg 41%
    15:00 +31°C° 0 mm 2 mps 684 mmHg 43%
    16:00 +31°C° 0 mm 2 mps 684 mmHg 46%
    17:00 +29°C° 1.2 mm 2 mps 683 mmHg 60%
    18:00 +26°C° 1.2 mm 1 mps 683 mmHg 74%
    19:00 +24°C° 1.2 mm 1 mps 682 mmHg 89%
    20:00 +23°C° 0.2 mm 1 mps 682 mmHg 90%
    21:00 +19°C° 0.2 mm 0 mps 682 mmHg 91%
    22:00 +18°C° 0.2 mm 0 mps 683 mmHg 93%
    23:00 +18°C° 0 mm 0 mps 682 mmHg 93%

    28 June, Friday

    Time Temperature Precipitation Wind Pressure Humidity
    00:00 +19°C° 0 mm 1 mps 682 mmHg 94%
    01:00 +19°C° 0 mm 1 mps 682 mmHg 94%
    02:00 +18°C° 0 mm 1 mps 682 mmHg 94%
    03:00 +18°C° 0 mm 1 mps 682 mmHg 94%
    04:00 +18°C° 0 mm 1 mps 682 mmHg 95%
    05:00 +19°C° 0 mm 1 mps 682 mmHg 93%
    06:00 +18°C° 0 mm 0 mps 682 mmHg 92%
    07:00 +20°C° 0 mm 0 mps 682 mmHg 91%
    08:00 +23°C° 0 mm 1 mps 682 mmHg 80%
    09:00 +25°C° 0 mm 1 mps 683 mmHg 69%
    10:00 +27°C° 0 mm 2 mps 683 mmHg 58%
    11:00 +27°C° 0 mm 2 mps 683 mmHg 51%
    12:00 +28°C° 0 mm 2 mps 683 mmHg 45%
    13:00 +28°C° 0 mm 3 mps 682 mmHg 39%
    14:00 +28°C° 0 mm 3 mps 682 mmHg 39%
    15:00 +28°C° 0 mm 2 mps 682 mmHg 39%
    16:00 +27°C° 0 mm 2 mps 682 mmHg 39%
    17:00 +25°C° 0 mm 2 mps 682 mmHg 49%
    18:00 +24°C° 0 mm 1 mps 681 mmHg 59%
    19:00 +22°C° 0 mm 1 mps 681 mmHg 69%
    20:00 +20°C° 0 mm 1 mps 681 mmHg 74%
    21:00 +18°C° 0 mm 1 mps 681 mmHg 78%
    22:00 +15°C° 0 mm 1 mps 681 mmHg 82%
    23:00 +15°C° 0 mm 1 mps 681 mmHg 81%

    29 June, Saturday

    Time Temperature Precipitation Wind Pressure Humidity
    00:00 +14°C° 0 mm 1 mps 681 mmHg 80%
    01:00 +14°C° 0 mm 1 mps 680 mmHg 79%
    02:00 +14°C° 0 mm 1 mps 680 mmHg 77%
    03:00 +14°C° 0 mm 1 mps 680 mmHg 76%
    04:00 +13°C° 0 mm 1 mps 680 mmHg 74%
    05:00 +15°C° 0 mm 1 mps 680 mmHg 68%
    06:00 +17°C° 0 mm 0 mps 681 mmHg 62%
    07:00 +19°C° 0 mm 0 mps 681 mmHg 56%
    08:00 +21°C° 0 mm 0 mps 681 mmHg 50%
    09:00 +25°C° 0 mm 1 mps 682 mmHg 44%
    10:00 +27°C° 0 mm 1 mps 682 mmHg 38%
    11:00 +27°C° 0 mm 1 mps 682 mmHg 36%
    12:00 +28°C° 0 mm 2 mps 682 mmHg 33%
    13:00 +29°C° 0 mm 2 mps 682 mmHg 31%
    14:00 +29°C° 0 mm 2 mps 681 mmHg 34%
    15:00 +28°C° 0 mm 2 mps 681 mmHg 36%
    16:00 +28°C° 0 mm 2 mps 681 mmHg 38%
    17:00 +26°C° 0 mm 2 mps 681 mmHg 50%
    18:00 +24°C° 0 mm 1 mps 681 mmHg 62%
    19:00 +23°C° 0 mm 1 mps 680 mmHg 74%
    20:00 +21°C° 0 mm 1 mps 680 mmHg 78%
    21:00 +19°C° 0 mm 1 mps 680 mmHg 82%
    22:00 +16°C° 0 mm 1 mps 680 mmHg 86%
    23:00 +16°C° 0 mm 1 mps 680 mmHg 81%
    Show more